Regional Weather Roundup
Issued by NWS Glasgow, MT

Home | Current Version | Previous Version | Text Only | Print | Product List | Glossary On
Versions: 1 2 3 4 5 6 7 8 9 10 11 12 13 14 15 16 17 18 19 20 21 22 23 24 25 26 27 28 29 30 31 32 33 34 35 36 37 38 39 40 41 42 43 44 45 46 47 48 49 50
000
ASUS45 KGGW 050815
RWRGGW
HOURLY REGIONAL WEATHER ROUNDUP FOR NORTHEAST MONTANA
NATIONAL WEATHER SERVICE GLASGOW MONTANA
200 AM MDT SUN JUL 05 2015

NOTE: "FAIR" INDICATES FEW OR NO CLOUDS BELOW 12,000 FEET WITH NO
SIGNIFICANT WEATHER AND/OR OBSTRUCTIONS TO VISISBILITY.

NORTHEAST MONTANA


CITY           SKY/WX    TMP DP  RH WIND       PRES   REMARKS
GLASGOW        TSTM      62  53  72 N24G31    29.89R
PLENTYWOOD       N/A     64  58  80 N12G21      N/A
WOLF POINT     TSTM      66  60  81 N30G38    29.86R
JORDAN           N/A     66  57  72 N24G37    29.82R
WINNETT          N/A     70  53  54 N6G21       N/A
SIDNEY         MOCLDY    66  61  82 N8        29.76R
GLENDIVE       CLEAR     66  64  94 NE10      29.74F
MALTA            N/A     62  58  86 NE15G35     N/A

FORT PECK REPORTS


CITY           SKY/WX    TMP DP  RH WIND       PRES   REMARKS
FORT PECK        N/A     64  59  83 N22G44      N/A
THE PINES        N/A     61  57  87 N16G26      N/A

SOUTHEAST MONTANA


CITY           SKY/WX    TMP DP  RH WIND       PRES   REMARKS
BILLINGS       PTCLDY    75  57  53 W5        29.77F
MILES CITY     PTCLDY    68  61  78 NE13      29.70F
BAKER          PTCLDY    62  55  77 SE7       29.76F
LIVINGSTON     PTCLDY    67  48  50 CALM      29.86S

CENTRAL MONTANA


CITY           SKY/WX    TMP DP  RH WIND       PRES   REMARKS
HAVRE          NOT AVBL
LEWISTOWN      MOCLDY    63  51  65 N23G33    29.93R
GREAT FALLS    CLOUDY    59  52  77 N13       30.07R
CUT BANK       LGT RAIN  51  50  96 N16       30.14S FOG
HELENA         CLOUDY    63  52  67 N14G32    30.04S
BUTTE          MOCLDY    61  38  42 SE5       29.97F
BOZEMAN        MOCLDY    60  47  61 NW9       29.88R

WESTERN MONTANA


CITY           SKY/WX    TMP DP  RH WIND       PRES   REMARKS
MISSOULA       PTCLDY    69  42  37 CALM      29.82S
KALISPELL      NOT AVBL

NORTH DAKOTA


CITY           SKY/WX    TMP DP  RH WIND       PRES   REMARKS
WILLISTON      MOCLDY    66  62  87 N9        29.78S
DICKINSON      CLEAR     64  58  80 N7        29.74F
MINOT          MOCLDY    61  59  93 NW7       29.76F FOG
BISMARCK       CLEAR     69  67  93 E8        29.72F

SOUTHERN SASKATCHEWAN


CITY           SKY/WX    TMP DP  RH WIND       PRES   REMARKS
REGINA         CLOUDY    59  57  94 NW5       29.89R FOG
ESTEVAN        CLOUDY    59  57  94 NE3       29.82R
SWIFT CURRENT  LGT RAIN  59  46  63 NW8       30.01R




USA.gov is the U.S. government's official web portal to all federal, state and local government web resources and services.